When you browse on this site, cookies collect data to enhance your experience and personalize the content and advertising you see.
Visit our Privacy Policy to learn more. By continuing to use the site, you agree to this use of cookies and data.
  • Em Portugal
  • Lista de países
  • Para 7 dias
  • Temperatura da água
  • Mapas de satélite
  • Mapa do tempo
  • Widgets de tempo
  • user-avatar
    Iniciar Sessão

    Previsão horária em Niebylec

    Hoje, 24 Março, Domingo

    Tempo Temperatura Precipitação Vento Pressão Humidade
    00:00 +8°C° 0 mm 1 m/s 743 mmHg 50%
    01:00 +7°C° 0 mm 1 m/s 743 mmHg 57%
    02:00 +7°C° 0 mm 1 m/s 743 mmHg 62%
    03:00 +8°C° 0 mm 1 m/s 743 mmHg 67%
    04:00 +7°C° 0 mm 2 m/s 743 mmHg 71%
    05:00 +7°C° 0.1 mm 2 m/s 743 mmHg 78%
    06:00 +7°C° 0.1 mm 3 m/s 743 mmHg 85%
    07:00 +7°C° 0.1 mm 3 m/s 743 mmHg 91%
    08:00 +8°C° 0 mm 3 m/s 743 mmHg 86%
    09:00 +8°C° 0 mm 3 m/s 743 mmHg 80%
    10:00 +9°C° 0 mm 3 m/s 743 mmHg 74%
    11:00 +10°C° 0 mm 3 m/s 743 mmHg 67%
    12:00 +11°C° 0 mm 3 m/s 742 mmHg 59%
    13:00 +12°C° 0 mm 3 m/s 742 mmHg 52%
    14:00 +12°C° 0 mm 3 m/s 741 mmHg 50%
    15:00 +13°C° 0 mm 2 m/s 741 mmHg 48%
    16:00 +13°C° 0 mm 2 m/s 741 mmHg 46%
    17:00 +11°C° 0 mm 1 m/s 740 mmHg 49%
    18:00 +10°C° 0 mm 1 m/s 740 mmHg 53%
    19:00 +7°C° 0 mm 0 m/s 739 mmHg 57%
    20:00 +7°C° 0 mm 0 m/s 739 mmHg 57%
    21:00 +8°C° 0 mm 1 m/s 739 mmHg 57%
    22:00 +9°C° 0 mm 1 m/s 738 mmHg 57%
    23:00 +8°C° 0.3 mm 1 m/s 738 mmHg 63%

    Amanhã, 25 Março, Segunda-feira

    Tempo Temperatura Precipitação Vento Pressão Humidade
    00:00 +7°C° 0.3 mm 0 m/s 737 mmHg 68%
    01:00 +6°C° 0.3 mm 0 m/s 737 mmHg 73%
    02:00 +6°C° 0.2 mm 0 m/s 736 mmHg 76%
    03:00 +7°C° 0.2 mm 1 m/s 736 mmHg 79%
    04:00 +6°C° 0.2 mm 1 m/s 735 mmHg 81%
    05:00 +6°C° 0.2 mm 1 m/s 735 mmHg 82%
    06:00 +6°C° 0.2 mm 1 m/s 735 mmHg 82%
    07:00 +6°C° 0.2 mm 1 m/s 735 mmHg 83%
    08:00 +6°C° 0 mm 2 m/s 735 mmHg 76%
    09:00 +7°C° 0 mm 2 m/s 735 mmHg 69%
    10:00 +8°C° 0 mm 3 m/s 734 mmHg 62%
    11:00 +9°C° 0 mm 3 m/s 734 mmHg 58%
    12:00 +10°C° 0 mm 3 m/s 734 mmHg 54%
    13:00 +10°C° 0 mm 4 m/s 733 mmHg 50%
    14:00 +10°C° 0.2 mm 4 m/s 733 mmHg 51%
    15:00 +9°C° 0.2 mm 5 m/s 733 mmHg 53%
    16:00 +8°C° 0.2 mm 5 m/s 733 mmHg 55%
    17:00 +7°C° 0.1 mm 5 m/s 733 mmHg 58%
    18:00 +6°C° 0.1 mm 4 m/s 734 mmHg 62%
    19:00 +5°C° 0.1 mm 4 m/s 734 mmHg 66%
    20:00 +5°C° 0 mm 4 m/s 735 mmHg 69%
    21:00 +4°C° 0 mm 4 m/s 735 mmHg 72%
    22:00 +3°C° 0 mm 4 m/s 736 mmHg 74%
    23:00 +3°C° 0 mm 4 m/s 737 mmHg 75%

    Depois de amanhã, 26 Março, Terça-feira

    Tempo Temperatura Precipitação Vento Pressão Humidade
    00:00 +1°C° 0 mm 5 m/s 737 mmHg 75%
    01:00 +1°C° 0 mm 5 m/s 738 mmHg 76%
    02:00 +1°C° 0 mm 5 m/s 738 mmHg 78%
    03:00 +1°C° 0 mm 5 m/s 739 mmHg 81%
    04:00 +1°C° 0 mm 5 m/s 739 mmHg 84%
    05:00 0°C° 0 mm 5 m/s 740 mmHg 84%
    06:00 0°C° 0 mm 5 m/s 740 mmHg 84%
    07:00 0°C° 0 mm 5 m/s 741 mmHg 85%
    08:00 +1°C° 0.1 mm 5 m/s 741 mmHg 80%
    09:00 +1°C° 0.1 mm 5 m/s 742 mmHg 76%
    10:00 +1°C° 0.1 mm 5 m/s 742 mmHg 71%
    11:00 +3°C° 0 mm 5 m/s 742 mmHg 64%
    12:00 +4°C° 0 mm 6 m/s 742 mmHg 58%
    13:00 +5°C° 0 mm 6 m/s 742 mmHg 51%
    14:00 +5°C° 0 mm 6 m/s 742 mmHg 49%
    15:00 +5°C° 0 mm 7 m/s 741 mmHg 47%
    16:00 +5°C° 0 mm 7 m/s 741 mmHg 46%
    17:00 +5°C° 0 mm 6 m/s 741 mmHg 51%
    18:00 +5°C° 0 mm 5 m/s 741 mmHg 56%
    19:00 +4°C° 0 mm 4 m/s 741 mmHg 60%
    20:00 +4°C° 0.1 mm 4 m/s 742 mmHg 64%
    21:00 +4°C° 0.1 mm 4 m/s 742 mmHg 68%
    22:00 +3°C° 0.1 mm 4 m/s 743 mmHg 72%
    23:00 +3°C° 0 mm 4 m/s 743 mmHg 74%

    27 Março, Quarta-feira

    Tempo Temperatura Precipitação Vento Pressão Humidade
    00:00 +2°C° 0 mm 3 m/s 743 mmHg 76%
    01:00 +2°C° 0 mm 3 m/s 744 mmHg 78%
    02:00 0°C° 0 mm 3 m/s 744 mmHg 79%
    03:00 -1°C° 0 mm 3 m/s 744 mmHg 79%
    04:00 -2°C° 0 mm 2 m/s 744 mmHg 80%
    05:00 -2°C° 0 mm 2 m/s 745 mmHg 74%
    06:00 -1°C° 0 mm 2 m/s 745 mmHg 67%
    07:00 -1°C° 0 mm 2 m/s 746 mmHg 60%
    08:00 +1°C° 0 mm 2 m/s 746 mmHg 52%
    09:00 +2°C° 0 mm 3 m/s 746 mmHg 43%
    10:00 +3°C° 0 mm 3 m/s 747 mmHg 35%
    11:00 +4°C° 0 mm 3 m/s 747 mmHg 34%
    12:00 +5°C° 0 mm 3 m/s 747 mmHg 34%
    13:00 +7°C° 0 mm 3 m/s 747 mmHg 34%
    14:00 +7°C° 0 mm 2 m/s 746 mmHg 35%
    15:00 +7°C° 0 mm 2 m/s 746 mmHg 37%
    16:00 +7°C° 0 mm 2 m/s 746 mmHg 39%
    17:00 +7°C° 0 mm 1 m/s 746 mmHg 42%
    18:00 +6°C° 0 mm 1 m/s 747 mmHg 46%
    19:00 +4°C° 0 mm 1 m/s 747 mmHg 50%
    20:00 +4°C° 0 mm 1 m/s 747 mmHg 52%
    21:00 +3°C° 0 mm 1 m/s 747 mmHg 54%
    22:00 +2°C° 0 mm 2 m/s 748 mmHg 55%
    23:00 +2°C° 0 mm 2 m/s 748 mmHg 56%

    28 Março, Quinta-feira

    Tempo Temperatura Precipitação Vento Pressão Humidade
    00:00 +1°C° 0 mm 2 m/s 748 mmHg 57%
    01:00 +1°C° 0 mm 2 m/s 748 mmHg 58%
    02:00 +1°C° 0 mm 2 m/s 748 mmHg 59%
    03:00 +2°C° 0 mm 1 m/s 748 mmHg 60%
    04:00 +2°C° 0 mm 1 m/s 748 mmHg 61%
    05:00 +3°C° 0 mm 1 m/s 748 mmHg 60%
    06:00 +4°C° 0 mm 1 m/s 748 mmHg 59%
    07:00 +5°C° 0 mm 1 m/s 749 mmHg 57%
    08:00 +7°C° 0 mm 1 m/s 749 mmHg 54%
    09:00 +8°C° 0 mm 1 m/s 749 mmHg 51%
    10:00 +10°C° 0 mm 1 m/s 749 mmHg 49%
    11:00 +11°C° 0 mm 1 m/s 749 mmHg 47%
    12:00 +12°C° 0 mm 1 m/s 749 mmHg 46%
    13:00 +12°C° 0 mm 1 m/s 748 mmHg 45%
    14:00 +12°C° 0 mm 1 m/s 748 mmHg 46%
    15:00 +12°C° 0 mm 2 m/s 748 mmHg 48%
    16:00 +12°C° 0 mm 2 m/s 748 mmHg 50%
    17:00 +9°C° 0 mm 2 m/s 748 mmHg 56%
    18:00 +9°C° 0 mm 1 m/s 748 mmHg 62%
    19:00 +8°C° 0 mm 1 m/s 748 mmHg 68%
    20:00 +7°C° 0 mm 1 m/s 748 mmHg 71%
    21:00 +6°C° 0 mm 0 m/s 748 mmHg 73%
    22:00 +5°C° 0 mm 0 m/s 748 mmHg 75%
    23:00 +5°C° 0 mm 0 m/s 748 mmHg 75%

    29 Março, Sexta-feira

    Tempo Temperatura Precipitação Vento Pressão Humidade
    00:00 +6°C° 0 mm 1 m/s 749 mmHg 75%
    01:00 +6°C° 0 mm 1 m/s 749 mmHg 75%
    02:00 +6°C° 0 mm 1 m/s 748 mmHg 79%
    03:00 +5°C° 0 mm 1 m/s 748 mmHg 82%
    04:00 +4°C° 0 mm 1 m/s 748 mmHg 86%
    05:00 +5°C° 0 mm 1 m/s 748 mmHg 84%
    06:00 +6°C° 0 mm 1 m/s 749 mmHg 82%
    07:00 +6°C° 0 mm 1 m/s 749 mmHg 81%
    08:00 +7°C° 0 mm 2 m/s 749 mmHg 75%
    09:00 +8°C° 0 mm 2 m/s 749 mmHg 69%
    10:00 +10°C° 0 mm 3 m/s 748 mmHg 63%
    11:00 +10°C° 0 mm 3 m/s 748 mmHg 59%
    12:00 +11°C° 0 mm 3 m/s 748 mmHg 54%
    13:00 +12°C° 0 mm 3 m/s 748 mmHg 49%
    14:00 +12°C° 0 mm 3 m/s 747 mmHg 48%
    15:00 +12°C° 0 mm 3 m/s 747 mmHg 48%
    16:00 +13°C° 0 mm 3 m/s 746 mmHg 47%
    17:00 +12°C° 0 mm 2 m/s 746 mmHg 52%
    18:00 +11°C° 0 mm 1 m/s 746 mmHg 58%
    19:00 +9°C° 0 mm 1 m/s 746 mmHg 63%
    20:00 +9°C° 0 mm 1 m/s 747 mmHg 65%
    21:00 +8°C° 0 mm 1 m/s 747 mmHg 68%
    22:00 +8°C° 0 mm 1 m/s 747 mmHg 70%
    23:00 +7°C° 0 mm 1 m/s 747 mmHg 74%
    Mostrar mais